Fort Dix, NJ

12:52 AM EST on February 10, 2016 (GMT -0500)
McGuire Air Force Base

Weather History for KWRI - June, 2013

Change the Weather History Date:

Saturday, June 29, 2013

  Actual Average Record
Temperature  
Mean Temperature 76 °F -  
Max Temperature 87 °F 83 °F 95 °F (2012)
Min Temperature 66 °F 62 °F 56 °F (2014)
Cooling Degree Days 11    
Growing Degree Days 26 (Base 50)    
Moisture  
Dew Point 68 °F    
Average Humidity 86    
Maximum Humidity 100    
Minimum Humidity 51    
Precipitation  
Precipitation 0.00 in - - ()
Sea Level Pressure  
Sea Level Pressure 29.57 in    
Wind  
Wind Speed 4 mph (SW)    
Max Wind Speed 12 mph    
Max Gust Speed 17 mph    
Visibility 10 miles    
Events Rain    
Averages and records for this station are not official NWS values.
T = Trace of Precipitation, MM = Missing Value Source: NWS Daily Summary

Daily Weather History Graph

Daily Weather History Graph

Search for Another Location

Airport or City:

Trip Planner

Search our weather history database for the weather conditions in past years. The results will help you decide how hot, cold, wet, or windy it might be!

Date:

Astronomy

Jun. 29, 2013 Rise Set
Actual Time 5:32 AM EDT 8:31 PM EDT
Civil Twilight 4:59 AM EDT 9:04 PM EDT
Nautical Twilight 4:18 AM EDT 9:45 PM EDT
Astronomical Twilight 3:29 AM EDT 10:33 PM EDT
Moon No Moon Rise 12:41 PM EDT (6/29)
Length of Visible Light 16h 04m
Length of Day
14h 58m
Waning Gibbous, 56% of the Moon is Illuminated
Jun 29
Waning Gibbous
Jun 30
Last Quarter
Jul 8
New
Jul 15
First Quarter
Jul 22
Full

Hourly Weather History & Observations

Time (EDT) Temp. Heat Index Dew Point Humidity Pressure Visibility Wind Dir Wind Speed Gust Speed Precip Events Conditions
12:58 AM 69.8 °F - 68.4 °F 95% 29.51 in 10.0 mi West 3.5 mph - N/A   Mostly Cloudy
1:34 AM 68.0 °F - 68.0 °F 100% 29.50 in 10.0 mi South 1.2 mph - N/A Rain Light Rain
1:44 AM 68.0 °F - 68.0 °F 100% 29.51 in 10.0 mi SW 2.3 mph - N/A   Overcast
1:58 AM 68.7 °F - 68.5 °F 99% 29.50 in 10.0 mi Calm Calm - 0.00 in   Overcast
2:12 AM 68.0 °F - 68.0 °F 100% 29.49 in 8.0 mi Calm Calm - N/A   Scattered Clouds
2:23 AM 68.0 °F - 66.2 °F 94% 29.49 in 10.0 mi Calm Calm - N/A   Partly Cloudy
2:58 AM 67.5 °F - 67.1 °F 99% 29.51 in 10.0 mi South 4.6 mph - N/A   Clear
2:59 AM 68.0 °F - 68.0 °F 100% 29.50 in 10.0 mi South 3.5 mph - N/A Rain Light Rain
3:08 AM 68.0 °F - 66.2 °F 94% 29.50 in 10.0 mi SSW 2.3 mph - N/A   Clear
3:49 AM 66.2 °F - 66.2 °F 100% 29.51 in 10.0 mi South 3.5 mph - N/A   Partly Cloudy
3:58 AM 66.7 °F - 66.6 °F 99% 29.52 in 10.0 mi South 2.3 mph - 0.00 in   Scattered Clouds
4:58 AM 66.6 °F - 66.2 °F 99% 29.54 in 10.0 mi SSW 3.5 mph - N/A   Clear
5:31 AM 66.2 °F - 66.2 °F 100% 29.54 in 10.0 mi SSW 2.3 mph - N/A   Partly Cloudy
5:42 AM 68.0 °F - 66.2 °F 94% 29.55 in 10.0 mi SW 4.6 mph - N/A   Mostly Cloudy
5:51 AM 68.0 °F - 66.2 °F 94% 29.55 in 10.0 mi SSW 8.1 mph - N/A   Mostly Cloudy
5:58 AM 67.5 °F - 67.1 °F 99% 29.56 in 10.0 mi SSW 6.9 mph - N/A   Overcast
6:58 AM 68.7 °F - 68.4 °F 99% 29.58 in 10.0 mi SW 4.6 mph - N/A   Overcast
7:17 AM 69.8 °F - 68.0 °F 94% 29.57 in 10.0 mi SW 8.1 mph - N/A   Overcast
7:23 AM 69.8 °F - 68.0 °F 94% 29.57 in 10.0 mi SW 6.9 mph - N/A   Overcast
7:26 AM 69.8 °F - 68.0 °F 94% 29.57 in 10.0 mi SW 5.8 mph - N/A   Overcast
7:43 AM 69.8 °F - 68.0 °F 94% 29.57 in 10.0 mi SW 5.8 mph - N/A   Mostly Cloudy
7:58 AM 70.0 °F - 69.3 °F 98% 29.58 in 10.0 mi WSW 5.8 mph - N/A   Mostly Cloudy
8:05 AM 69.8 °F - 69.8 °F 100% 29.58 in 10.0 mi WSW 6.9 mph - N/A   Mostly Cloudy
8:58 AM 72.3 °F - 69.3 °F 90% 29.60 in 10.0 mi West 9.2 mph - N/A   Overcast
9:58 AM 77.0 °F - 68.2 °F 74% 29.60 in 10.0 mi West 6.9 mph - N/A   Partly Cloudy
10:58 AM 79.0 °F - 66.7 °F 66% 29.61 in 10.0 mi WSW 9.2 mph 17.3 mph N/A   Partly Cloudy
11:58 AM 81.5 °F 83.6 °F 66.0 °F 59% 29.60 in 10.0 mi West 11.5 mph 17.3 mph N/A   Clear
12:58 PM 84.0 °F 86.5 °F 66.7 °F 56% 29.60 in 10.0 mi WSW 9.2 mph - N/A   Partly Cloudy
1:58 PM 84.7 °F 86.8 °F 66.0 °F 53% 29.60 in 10.0 mi West 9.2 mph - N/A   Scattered Clouds
2:58 PM 85.3 °F 87.9 °F 66.7 °F 54% 29.60 in 10.0 mi WSW 8.1 mph 17.3 mph N/A   Scattered Clouds
3:58 PM 86.4 °F 89.0 °F 67.1 °F 52% 29.60 in 10.0 mi Variable 4.6 mph - N/A   Clear
4:58 PM 86.2 °F 88.4 °F 66.4 °F 51% 29.61 in 10.0 mi West 6.9 mph - N/A   Partly Cloudy
5:58 PM 85.3 °F 88.2 °F 67.6 °F 55% 29.61 in 10.0 mi WSW 10.4 mph - N/A   Scattered Clouds
6:58 PM 81.1 °F 84.5 °F 69.6 °F 68% 29.62 in 10.0 mi WSW 5.8 mph - N/A   Scattered Clouds
7:58 PM 79.5 °F - 72.1 °F 78% 29.65 in 10.0 mi SSW 9.2 mph - N/A   Clear
8:58 PM 76.6 °F - 71.6 °F 84% 29.67 in 10.0 mi SSW 5.8 mph - N/A   Mostly Cloudy
9:58 PM 74.1 °F - 70.7 °F 89% 29.69 in 10.0 mi SSW 5.8 mph - N/A   Clear
10:58 PM 72.3 °F - 70.7 °F 95% 29.69 in 10.0 mi SW 3.5 mph - N/A   Clear
11:58 PM 72.1 °F - 70.9 °F 96% 29.71 in 10.0 mi SW 4.6 mph - N/A   Clear